Вернуться в каталог

SL-12 R/B(2)

АктивенGEO
NORAD 14086·ROCKET BODY·🇷🇺 Russia

Запущен Mar 12, 1983 с Baikonur Cosmodrome

Loading…

TLE

СвежийSource: Space-Track

Эпоха: Sep 14, 2026, 16:33 UTC

1 14086U 83016F   26257.68984821 -.00000002  00000-0  00000-0 0  9998
2 14086   6.3979 296.1440 0016778 326.9850 198.1613  1.01101421123874

Отслеживайте SL-12 R/B(2) в реальном времени с AllMySat

Download on the App Store